Oakland, CA

9:00 PM PST on February 24, 2018 (GMT -0800)
Metro Oakland International

Weather History for KOAK - November, 2011

Change the Weather History Date:

Thursday, November 3, 2011

  Actual Average Record
Temperature  
Mean Temperature 56 °F 57 °F  
Max Temperature 64 °F 66 °F 83 °F (1950)
Min Temperature 48 °F 48 °F 39 °F (1952)
Degree Days  
Heating Degree Days 9 8  
Month to date heating degree days 11 23  
Since 1 July heating degree days 370 375  
Cooling Degree Days 0 0  
Month to date cooling degree days 0 0  
Year to date cooling degree days 152 137  
Growing Degree Days 8 (Base 50)    
Moisture  
Dew Point 45 °F    
Average Humidity 63    
Maximum Humidity 71    
Minimum Humidity 54    
Precipitation  
Precipitation 0.03 in 0.08 in 1.00 in (1972)
Month to date precipitation 0.03 0.25  
Year to date precipitation 14.53 14.95  
Since 1 July precipitation 1.72  
Sea Level Pressure  
Sea Level Pressure 29.91 in    
Wind  
Wind Speed 9 mph (WNW)    
Max Wind Speed 21 mph    
Max Gust Speed 23 mph    
Visibility 10 miles    
Events Rain    
T = Trace of Precipitation, MM = Missing Value Source: NWS Daily Summary

Daily Weather History Graph

Daily Weather History Graph

Search for Another Location

Airport or City:

Trip Planner

Search our weather history database for the weather conditions in past years. The results will help you decide how hot, cold, wet, or windy it might be!

Date:

Astronomy

Nov. 03, 2011 Rise Set
Actual Time 7:36 AM PDT 6:08 PM PDT
Civil Twilight 7:08 AM PDT 6:35 PM PDT
Nautical Twilight 6:37 AM PDT 7:06 PM PDT
Astronomical Twilight 6:07 AM PDT 7:37 PM PDT
Moon 2:28 PM PDT (11/3) 1:01 AM PDT (11/3)
Length of Visible Light 11h 26m
Length of Day
10h 32m
First Quarter, 61% of the Moon is Illuminated
Nov 3
First Quarter
Nov 10
Full
Nov 18
Last Quarter
Nov 24
New
Dec 2
First Quarter

Hourly Weather History & Observations

Time (PDT) Temp. Dew Point Humidity Pressure Visibility Wind Dir Wind Speed Gust Speed Precip Events Conditions
12:53 AM 55.0 °F 39.0 °F 55% 30.03 in 10.0 mi NE 5.8 mph - N/A   Partly Cloudy
1:53 AM 55.9 °F 39.9 °F 55% 30.02 in 10.0 mi NNE 3.5 mph - N/A   Clear
2:53 AM 52.0 °F 37.9 °F 59% 30.01 in 10.0 mi Calm Calm - N/A   Clear
3:53 AM 54.0 °F 37.0 °F 53% 29.98 in 10.0 mi ENE 3.5 mph - N/A   Partly Cloudy
4:53 AM 52.0 °F 39.0 °F 61% 29.98 in 10.0 mi Calm Calm - N/A   Clear
5:53 AM 52.0 °F 39.9 °F 63% 29.96 in 10.0 mi Calm Calm - N/A   Clear
6:53 AM 57.0 °F 43.0 °F 59% 29.96 in 10.0 mi WNW 9.2 mph - N/A   Partly Cloudy
7:53 AM 53.1 °F 44.1 °F 71% 29.94 in 10.0 mi East 3.5 mph - N/A   Scattered Clouds
8:53 AM 59.0 °F 48.0 °F 67% 29.95 in 10.0 mi NNW 4.6 mph - N/A   Mostly Cloudy
9:53 AM 59.0 °F 46.9 °F 64% 29.94 in 10.0 mi WNW 11.5 mph - N/A   Mostly Cloudy
10:53 AM 61.0 °F 46.9 °F 60% 29.95 in 10.0 mi West 13.8 mph - N/A   Scattered Clouds
11:53 AM 62.6 °F 46.4 °F 55% 29.93 in 10.0 mi SW 8.1 mph - N/A   Mostly Cloudy
12:20 PM 62.6 °F 44.6 °F 52% 29.92 in 10.0 mi West 5.8 mph - N/A   Mostly Cloudy
12:53 PM 63.0 °F 48.9 °F 60% 29.91 in 10.0 mi West 13.8 mph - N/A   Overcast
1:21 PM 62.6 °F 50.0 °F 63% 29.90 in 10.0 mi WSW 15.0 mph - N/A   Overcast
1:32 PM 62.6 °F 50.0 °F 63% 29.89 in 10.0 mi WNW 11.5 mph - N/A   Overcast
1:41 PM 62.6 °F 48.2 °F 59% 29.89 in 10.0 mi WNW 16.1 mph - N/A   Overcast
1:49 PM 60.8 °F 48.2 °F 63% 29.89 in 10.0 mi NW 12.7 mph - N/A   Overcast
1:50 PM 60.1 °F 48.9 °F 67% 29.89 in 10.0 mi NW 12.7 mph - N/A   Overcast
1:55 PM 60.8 °F 48.2 °F 63% 29.89 in 10.0 mi NW 12.7 mph - N/A   Overcast
2:02 PM 59.0 °F 46.4 °F 63% 29.89 in 10.0 mi NW 13.8 mph 19.6 mph N/A   Overcast
2:24 PM 57.2 °F 48.2 °F 72% 29.89 in 10.0 mi WNW 18.4 mph 23.0 mph 0.00 in Rain Light Rain
2:53 PM 57.9 °F 44.1 °F 60% 29.88 in 10.0 mi West 9.2 mph - 0.00 in   Overcast
3:02 PM 59.0 °F 42.8 °F 55% 29.87 in 10.0 mi West 12.7 mph - N/A   Overcast
3:53 PM 57.0 °F 46.0 °F 67% 29.86 in 7.0 mi West 12.7 mph - 0.02 in Rain Light Rain
4:53 PM 57.9 °F 46.0 °F 65% 29.86 in 10.0 mi West 12.7 mph - 0.01 in   Mostly Cloudy
5:53 PM 57.9 °F 45.0 °F 62% 29.85 in 10.0 mi WSW 15.0 mph - N/A   Mostly Cloudy
6:53 PM 57.0 °F 45.0 °F 64% 29.85 in 10.0 mi West 13.8 mph - N/A   Mostly Cloudy
7:16 PM 57.2 °F 46.4 °F 67% 29.85 in 10.0 mi West 9.2 mph - N/A   Overcast
7:53 PM 57.9 °F 46.0 °F 65% 29.85 in 10.0 mi West 12.7 mph - N/A   Mostly Cloudy
8:53 PM 57.0 °F 43.0 °F 59% 29.85 in 10.0 mi West 15.0 mph - 0.00 in   Mostly Cloudy
9:53 PM 57.2 °F 42.8 °F 59% 29.85 in 10.0 mi West 13.8 mph - N/A   Mostly Cloudy
10:53 PM 55.9 °F 43.0 °F 62% 29.85 in 10.0 mi West 9.2 mph - N/A   Mostly Cloudy
11:53 PM 57.0 °F 43.0 °F 59% 29.85 in 10.0 mi West 9.2 mph - N/A   Mostly Cloudy